[[{"header":{"parameterUnit":"m.s-1","parameterCategory":1,"la1":30.2991,"la2":30.254,"lo1":-89.0895,"lo2":-89.0444,"dy":0.0017,"dx":0.0017,"nx":28,"ny":28,"refTime":"2024-04-09T09:00:00:Z","depth":0,"parameterNumber":2,"parameterNumberName":"U-component_of_WINDS"},"data":[0,0,0,0,0,0,0,0,0,0,0,0,0,0,0,0,0,0,0,0,0,0,0,0,0,0,0,0,0,0,0,0,0,0,0,0,0,0,0,0,0,0,0,0,0,0,0,0,0,0,0,0,0,0,0,0,0,0,-6.4237,-6.4239,0,-6.4443,-6.4445,-6.4447,-6.4516,-6.4515,-6.4514,-6.4514,-6.4722,-6.4728,-6.4734,0,0,0,0,0,0,0,0,0,0,0,0,0,-6.3902,-6.3907,-6.4237,-6.424,-6.4242,-6.4442,-6.4445,-6.4448,-6.4516,-6.4515,-6.4514,-6.4513,-6.472,-6.4727,-6.4735,0,0,0,0,0,0,0,0,0,0,0,0,0,-6.4071,-6.3909,-6.4237,-6.43,-6.4308,-6.4442,-6.4445,-6.4449,-6.4516,-6.4515,-6.4514,-6.4513,-6.4717,-6.4726,-6.4736,-6.482,0,0,-6.4765,-6.4769,0,0,0,0,0,0,0,0,-6.4061,-6.4083,-6.4288,-6.4296,-6.4305,-6.4453,-6.4404,-6.4573,-6.4517,-6.4437,-6.4513,-6.4512,-6.4633,-6.4649,-6.4691,-6.483,-6.4839,-6.4766,-6.4772,-6.4776,-6.4778,0,0,0,0,0,0,0,-6.405,-6.4075,-6.4318,-6.4291,-6.4302,-6.4318,-6.4341,-6.4436,-6.454,-6.4444,-6.445,-6.4473,-6.4637,-6.4681,-6.4696,-6.4842,-6.4766,-6.4774,-6.478,-6.4784,-6.5061,-6.5062,0,0,0,0,0,0,-6.4027,-6.4065,-6.4312,-6.4325,-6.4178,-6.4325,-6.4351,-6.4406,-6.4539,-6.4558,-6.4474,-6.4476,-6.4666,-6.4685,-6.4704,-6.4811,-6.4776,-6.4785,-6.479,-6.5059,-6.5061,-6.5063,0,0,0,0,0,0,-6.402,-6.4049,-6.4304,-6.4196,-6.423,-6.4332,-6.4395,-6.4411,-6.4455,-6.4562,-6.458,-6.45,-6.4666,-6.469,-6.4791,-6.4819,-6.4789,-6.4797,-6.5057,-6.506,-6.5062,-6.5025,0,0,0,0,0,0,-6.401,-6.4046,-6.4079,-6.4197,-6.4235,-6.4388,-6.4396,-6.4416,-6.4472,-6.4476,-6.4591,-6.4609,-6.4666,-6.4776,-6.48,-6.4831,-6.4805,-6.5055,-6.5058,-6.5061,-6.5024,-6.5026,-6.5028,0,0,0,0,0,-6.3998,-6.406,-6.408,-6.411,-6.428,-6.4389,-6.4411,-6.4477,-6.4474,-6.4508,-6.4576,-6.4605,-6.4812,-6.4786,-6.4814,-6.4848,-6.5054,-6.5058,-6.5061,-6.5024,-6.5026,-6.5028,0,0,0,0,0,0,-6.3943,-6.4077,-6.4101,-6.4203,-6.4284,-6.44,-6.4445,-6.4477,-6.456,-6.4561,-6.4638,-6.4664,-6.4758,-6.4814,-6.4782,-6.4937,-6.4934,-6.4944,-6.4896,-6.4899,-6.4901,-6.4885,-6.4813,0,0,0,0,0,-6.3943,-6.4021,-6.4134,-6.4213,-6.4253,-6.4342,-6.4392,-6.4436,-6.4523,-6.4557,-6.4633,-6.4716,-6.48,-6.4853,-6.4936,-6.5034,-6.5059,-6.5071,-6.5072,-6.5073,-6.508,-6.5135,-6.5141,-6.5075,-6.5075,-6.5075,0,0,-6.3943,-6.4026,-6.407,-6.4204,-6.4272,-6.4351,-6.437,-6.4453,-6.4512,-6.457,-6.4669,-6.4728,-6.4825,-6.4924,-6.4972,-6.4973,-6.5104,-6.5078,-6.5078,-6.5084,-6.5139,-6.5145,-6.5151,-6.5078,-6.5077,-6.5077,0,0,-6.3983,-6.4054,-6.4128,-6.4196,-6.4299,-6.4358,-6.4375,-6.4488,-6.4529,-6.463,-6.4675,-6.4746,-6.4889,-6.4957,-6.501,-6.5076,-6.5105,-6.5101,-6.5109,-6.5161,-6.5167,-6.5172,-6.5194,-6.5201,-6.5108,-6.5108,-6.5108,0,-6.3969,-6.409,-6.4161,-6.4242,-6.4299,-6.4356,-6.4431,-6.4493,-6.4618,-6.4655,-6.4656,-6.4837,-6.4907,-6.5022,-6.5038,-6.508,-6.5101,-6.5087,-6.516,-6.5166,-6.5172,-6.5194,-6.5202,-6.5106,-6.5107,-6.5107,-6.5107,0,-6.4068,-6.4152,-6.4199,-6.4318,-6.4381,-6.4458,-6.4539,-6.4595,-6.4633,-6.4692,-6.4794,-6.488,-6.4981,-6.5013,-6.5051,-6.5134,-6.5131,-6.5145,-6.5144,-6.5175,-6.5197,-6.5207,-6.5105,-6.5105,-6.5105,-6.5106,0,0,-6.4078,-6.4236,-6.4252,-6.4306,-6.4425,-6.449,-6.457,-6.467,-6.4714,-6.4799,-6.4867,-6.4987,-6.5001,-6.5061,-6.5108,-6.5154,-6.52,-6.5163,-6.5166,-6.5165,-6.5295,-6.5282,-6.5291,-6.5221,-6.5223,-6.5225,-6.5286,0,-6.4132,-6.4276,-6.4343,-6.4457,-6.4534,-6.4591,-6.466,-6.474,-6.4797,-6.4871,-6.4934,-6.5018,-6.503,-6.5067,-6.5116,-6.5184,-6.5227,-6.5181,-6.5284,-6.5286,-6.5255,-6.5303,-6.529,-6.5343,-6.5295,-6.5297,-6.5298,0,-6.4214,-6.4298,-6.442,-6.453,-6.4565,-6.4625,-6.4722,-6.4792,-6.4884,-6.4923,-6.499,-6.5035,-6.512,-6.5115,-6.5233,-6.52,-6.5247,-6.5287,-6.5291,-6.5301,-6.5292,-6.5313,-6.5362,-6.537,-6.5313,-6.5312,-6.5311,0,-6.4206,-6.4351,-6.4442,-6.4488,-6.4618,-6.4659,-6.4715,-6.4806,-6.4861,-6.4946,-6.4983,-6.5076,-6.5127,-6.5198,-6.5267,-6.5257,-6.5378,-6.5379,-6.5411,-6.5409,-6.5432,-6.5429,-6.5488,-6.5465,-6.5465,-6.5465,-6.5465,0,-6.4258,-6.433,-6.4441,-6.4497,-6.4579,-6.4655,-6.4735,-6.4795,-6.4875,-6.4944,-6.4999,-6.5062,-6.515,-6.5224,-6.5279,-6.5368,-6.5391,-6.5424,-6.5437,-6.5418,-6.5413,-6.5447,-6.5445,-6.5467,-6.5467,-6.5466,-6.5466,0,-6.4262,-6.4339,-6.4443,-6.4558,-6.4588,-6.4644,-6.4742,-6.4799,-6.4859,-6.4945,-6.497,-6.5065,-6.5155,-6.5232,-6.5351,-6.5388,-6.5479,-6.5496,-6.5448,-6.5454,-6.5482,-6.5478,-6.5563,-6.5578,-6.5546,-6.5546,-6.5547,0,-6.4289,-6.4346,-6.4467,-6.4517,-6.4572,-6.4652,-6.471,-6.4787,-6.4844,-6.4954,-6.4997,-6.5091,-6.517,-6.5312,-6.5391,-6.5482,-6.5501,-6.5525,-6.5515,-6.5493,-6.5499,-6.5494,-6.55,-6.5524,-6.5524,-6.5524,-6.5524,0,-6.4328,-6.4364,-6.4444,-6.4539,-6.4605,-6.4683,-6.4763,-6.48,-6.4892,-6.4954,-6.5047,-6.5109,-6.523,-6.5323,-6.5423,-6.5481,-6.5517,-6.5527,-6.5539,-6.5519,-6.5488,-6.5504,-6.5447,-6.5524,-6.5524,-6.5524,-6.5524,-6.5524,-6.4344,-6.4397,-6.449,-6.4578,-6.4646,-6.4719,-6.4778,-6.4846,-6.4925,-6.503,-6.5072,-6.5166,-6.5257,-6.5395,-6.5453,-6.5528,-6.5534,-6.5551,-6.5556,-6.5558,-6.5555,-6.5478,-6.5547,-6.5547,-6.5547,-6.5547,-6.5548,0,-6.4385,-6.4448,-6.4528,-6.4637,-6.4706,-6.4737,-6.4826,-6.4881,-6.4964,-6.5046,-6.5124,-6.523,-6.5321,-6.5408,-6.5503,-6.5546,-6.5566,-6.5568,-6.5565,-6.5577,-6.5545,-6.5525,-6.5551,-6.5551,-6.5551,-6.5551,-6.5551,-6.5551,-6.4414,-6.4505,-6.4551,-6.4676,-6.4739,-6.4833,-6.4881,-6.4949,-6.5014,-6.5131,-6.5207,-6.5263,-6.5347,-6.5449,-6.5533,-6.5557,-6.5588,-6.5586,-6.5614,-6.5581,-6.558,-6.5578,-6.5559,-6.5593,-6.5593,-6.564,-6.564,-6.564]},{"header":{"parameterUnit":"m.s-1","parameterCategory":1,"la1":30.2991,"la2":30.254,"lo1":-89.0895,"lo2":-89.0444,"dy":0.0017,"dx":0.0017,"nx":28,"ny":28,"refTime":"2024-04-09T09:00:00:Z","depth":0,"parameterNumber":3,"parameterNumberName":"V-component_of_WINDS"},"data":[0,0,0,0,0,0,0,0,0,0,0,0,0,0,0,0,0,0,0,0,0,0,0,0,0,0,0,0,0,0,0,0,0,0,0,0,0,0,0,0,0,0,0,0,0,0,0,0,0,0,0,0,0,0,0,0,0,0,8.9454,8.9454,0,8.9454,8.9454,8.9454,8.9355,8.9352,8.935,8.9347,8.9345,8.9348,8.935,0,0,0,0,0,0,0,0,0,0,0,0,0,8.9369,8.9371,8.9454,8.9454,8.9454,8.9454,8.9454,8.9454,8.9355,8.9352,8.9349,8.9346,8.9345,8.9347,8.935,0,0,0,0,0,0,0,0,0,0,0,0,0,8.9391,8.9372,8.9454,8.9405,8.9401,8.9454,8.9454,8.9454,8.9356,8.9352,8.9348,8.9345,8.9344,8.9347,8.9351,8.945,0,0,8.9361,8.9363,0,0,0,0,0,0,0,0,8.939,8.9394,8.9412,8.9409,8.9404,8.94,8.9423,8.9452,8.9357,8.9373,8.9347,8.9343,8.9367,8.9368,8.9376,8.945,8.945,8.9362,8.9364,8.9365,8.9366,0,0,0,0,0,0,0,8.9389,8.9394,8.9454,8.9413,8.9408,8.9383,8.9382,8.9428,8.9392,8.9371,8.9364,8.9366,8.9364,8.9373,8.9376,8.945,8.9362,8.9365,8.9367,8.9368,8.9606,8.9609,0,0,0,0,0,0,8.9394,8.9393,8.9454,8.9454,8.9387,8.9388,8.9386,8.9405,8.9391,8.9385,8.9369,8.9361,8.9369,8.9372,8.9375,8.9491,8.9365,8.9369,8.9371,8.9601,8.9606,8.9611,0,0,0,0,0,0,8.9393,8.94,8.9454,8.9422,8.9427,8.9393,8.9415,8.9407,8.9417,8.9389,8.9382,8.9386,8.9366,8.937,8.9432,8.949,8.937,8.9373,8.9596,8.9603,8.9609,8.9724,0,0,0,0,0,0,8.9391,8.9401,8.9438,8.9423,8.9429,8.9512,8.9419,8.941,8.9424,8.9413,8.9403,8.9397,8.9364,8.9428,8.9436,8.9492,8.9376,8.9591,8.9599,8.9607,8.9715,8.9733,8.9749,0,0,0,0,0,8.9388,8.947,8.944,8.9448,8.9475,8.9515,8.9518,8.9478,8.9429,8.9466,8.9448,8.9398,8.9482,8.9435,8.9443,8.9502,8.9587,8.9597,8.9606,8.9707,8.973,8.9749,0,0,0,0,0,0,8.9491,8.9467,8.9434,8.9513,8.9517,8.9498,8.9544,8.9503,8.952,8.951,8.9459,8.9458,8.9528,8.9521,8.9469,8.9598,8.9526,8.9538,8.96,8.9621,8.9638,8.9638,8.9379,0,0,0,0,0,8.9523,8.9558,8.9535,8.9607,8.9611,8.9578,8.9593,8.9563,8.9564,8.9565,8.9551,8.9555,8.9582,8.9601,8.9624,8.9713,8.971,8.9758,8.9775,8.9789,8.98,8.9847,8.9868,8.9642,8.9642,8.9642,0,0,8.9589,8.958,8.9605,8.9628,8.9627,8.9664,8.9579,8.9622,8.9649,8.9571,8.9629,8.962,8.962,8.9697,8.9729,8.9693,8.9862,8.9801,8.9813,8.9815,8.9859,8.9881,8.99,8.9648,8.9647,8.9646,0,0,8.9729,8.9726,8.9786,8.9788,8.9788,8.9766,8.9781,8.9769,8.976,8.9818,8.976,8.9792,8.984,8.9842,8.985,8.9994,8.9948,9.0003,9.0092,9.0139,9.0157,9.0173,9.0225,9.0244,9.0013,9.0014,9.0014,0,8.9811,8.9866,8.9822,8.987,8.9882,8.9814,8.9875,8.9878,8.9886,8.9896,8.9855,8.9915,8.991,8.9987,9.0022,9.003,9.0046,9.0003,9.0158,9.0173,9.0187,9.0236,9.0256,9.002,9.002,9.0019,9.0018,0,8.9967,9.0006,9.0055,9.0066,9.0083,9.0137,9.0102,9.0125,9.0093,9.0075,9.0135,9.0127,9.0149,9.0165,9.0133,9.0237,9.0215,9.0167,9.0094,9.0216,9.0261,9.028,9.003,9.0027,9.0026,9.0024,0,0,9.0171,9.0158,9.0177,9.0182,9.0178,9.0207,9.0259,9.028,9.0301,9.0309,9.0351,9.0394,9.035,9.0359,9.0328,9.0369,9.0485,9.0316,9.0315,9.0348,9.06,9.0636,9.0658,9.0455,9.0458,9.0461,9.06,0,9.0307,9.0394,9.0358,9.0449,9.0485,9.0421,9.0466,9.0469,9.0454,9.0482,9.0465,9.0497,9.0436,9.0441,9.0479,9.0463,9.0534,9.0452,9.0493,9.0495,9.0495,9.0682,9.072,9.0852,9.0617,9.062,9.0622,0,9.0477,9.0494,9.0589,9.0581,9.0594,9.0635,9.0653,9.068,9.0682,9.0669,9.068,9.064,9.069,9.0617,9.0686,9.063,9.0645,9.064,9.0644,9.0646,9.0566,9.069,9.0893,9.0913,9.0649,9.0647,9.0645,0,9.0617,9.0664,9.0727,9.0732,9.0724,9.0754,9.0752,9.075,9.0766,9.0782,9.0792,9.0813,9.0824,9.0841,9.0808,9.0758,9.0881,9.0806,9.0871,9.0873,9.09,9.0899,9.1109,9.0909,9.0909,9.0909,9.0908,0,9.0773,9.0834,9.079,9.0829,9.0895,9.0853,9.0919,9.091,9.0909,9.0945,9.0892,9.0926,9.088,9.0911,9.0885,9.0946,9.0951,9.0941,9.0934,9.0947,9.0948,9.0956,9.0946,9.0914,9.0913,9.0912,9.0911,0,9.0941,9.0914,9.0978,9.0966,9.0964,9.1014,9.1002,9.1038,9.102,9.1066,9.1074,9.1046,9.1079,9.1048,9.1078,9.1061,9.1143,9.1122,9.1143,9.1137,9.1205,9.1199,9.1427,9.1455,9.1238,9.124,9.1241,0,9.1043,9.1088,9.1081,9.1102,9.1103,9.1137,9.1154,9.1114,9.1133,9.114,9.1175,9.1204,9.1225,9.1281,9.1262,9.1286,9.1266,9.1344,9.1269,9.128,9.1268,9.1266,9.127,9.1359,9.1362,9.1364,9.1366,0,9.1226,9.1211,9.1237,9.126,9.1281,9.1297,9.1307,9.1327,9.1286,9.1311,9.1345,9.1361,9.1394,9.1423,9.1442,9.1439,9.1396,9.139,9.1406,9.142,9.143,9.1426,9.1185,9.1385,9.1383,9.1381,9.138,9.1379,9.1364,9.1402,9.1404,9.1435,9.144,9.1452,9.1485,9.1472,9.1499,9.1523,9.1498,9.154,9.1541,9.1562,9.1565,9.1596,9.1563,9.1587,9.1593,9.16,9.161,9.1425,9.1599,9.1599,9.1598,9.1598,9.1597,0,9.1546,9.1544,9.1574,9.1592,9.1617,9.1575,9.1585,9.1609,9.1647,9.1652,9.1674,9.1714,9.1743,9.1727,9.1752,9.1781,9.1762,9.1789,9.1786,9.1787,9.1638,9.1621,9.1804,9.1804,9.1804,9.1804,9.1804,9.1804,9.1643,9.1706,9.1691,9.1756,9.1753,9.1794,9.1804,9.1815,9.1819,9.1866,9.189,9.1881,9.1878,9.1902,9.1927,9.1922,9.1934,9.1968,9.1956,9.1817,9.1797,9.1778,9.1762,9.1971,9.1971,9.2102,9.2103,9.2104]}]]